Regional Weather Roundup
Issued by NWS

Home | Current Version | Previous Version | Text Only | Print | Product List | Glossary On
Versions: 1 2 3 4 5 6 7 8 9 10 11 12 13 14 15 16 17 18 19 20 21 22 23 24 25 26 27 28 29 30 31 32 33 34 35 36 37 38 39 40 41 42 43 44 45 46 47 48 49 50
000
ASUS45 KTFX 291310
RWRMT
MONTANA REGIONAL WEATHER ROUNDUP
NATIONAL WEATHER SERVICE GREAT FALLS MT
700 AM MDT MON MAY 29 2017

NOTE: "FAIR" INDICATES FEW OR NO CLOUDS BELOW 12000 FEET WITH NO
SIGNIFICANT WEATHER AND/OR OBSTRUCTIONS TO VISIBILITY.

MTZ001>007-043-291400-
WEST OF THE DIVIDE

CITY           SKY/WX    TMP DP  RH WIND       PRES   REMARKS
KALISPELL      SUNNY     54  46  74 CALM      30.18R
MISSOULA       SUNNY     51  44  77 CALM      30.21R
BUTTE          SUNNY     38  35  89 CALM      30.31R
MULLAN PASS    CLEAR     52  36  54 SE8       30.25S
ANACONDA         N/A     48  37  66 S3        30.28R
DEER LODGE       N/A     43  39  87 CALM      30.31R
EUREKA           N/A     46  43  87 CALM      30.18R
HAMILTON         N/A     52  39  62 S5        30.22R
RONAN            N/A     48  43  83 CALM      30.20R
$$

MTZ008-052>055-291400-
SOUTHWEST MONTANA

CITY           SKY/WX    TMP DP  RH WIND       PRES   REMARKS
BOZEMAN        SUNNY     46  43  89 SE3       30.28S
DILLON         SUNNY     45  37  73 S7        30.29S
ENNIS          SUNNY     39  36  87 E3        30.35S
THREE FORKS      N/A     41  40  96 CALM      30.24R
TWIN BRIDGES     N/A     43  34  70 N2        30.25R
$$

MTZ009-010-012-014-046-048-049-054-291400-
EAST SLOPES AND CENTRAL MONTANA

CITY           SKY/WX    TMP DP  RH WIND       PRES   REMARKS
CUT BANK       SUNNY     49  42  77 CALM      30.24S
GREAT FALLS    SUNNY     48  45  89 CALM      30.24S
MALMSTROM AFB  SUNNY     47  46  97 SW5       30.24S
HELENA         CLOUDY    48  44  86 CALM      30.26R
CHOTEAU          N/A     46  45  93 CALM      30.26R
CONRAD           N/A     45  45 100 CALM      30.23S
$$

MTZ011-013-016-021-045-047-050-051-291400-
NORTH CENTRAL MONTANA

CITY           SKY/WX    TMP DP  RH WIND       PRES   REMARKS
HAVRE          MOSUNNY   44  33  65 CALM      30.24S
LEWISTOWN      SUNNY     42  35  76 SE5       30.26R
N BAR RANCH      N/A     41  34  75 CALM      30.29S
CHINOOK          N/A     43  36  75 CALM      30.25S
FORT BENTON      N/A     46  43  87 MISG      30.25S
$$

MTZ017>020-022>027-061-062-291400-
NORTHEAST MONTANA

CITY           SKY/WX    TMP DP  RH WIND       PRES   REMARKS
GLASGOW        SUNNY     44  33  65 NW8       30.22R
JORDAN           N/A     44  31  60 W6        30.23R
SIDNEY         SUNNY     49  38  65 NW13      30.15R
WOLF POINT     SUNNY     48  37  65 SW6       30.20R
MALTA          SUNNY     41  34  75 CALM      30.24R
PLENTYWOOD       N/A     48  39  71 NW18      30.14S
POPLAR           N/A     50  37  62 NW12      30.19R
$$

MTZ028>42-056>058-291400-
SOUTHCENTRAL AND SOUTHEAST MONTANA

CITY           SKY/WX    TMP DP  RH WIND       PRES   REMARKS
BAKER          SUNNY     44  32  62 W7        30.18R
BILLINGS       MOSUNNY   49  44  83 W3        30.25R
LIVINGSTON     SUNNY     42  41  96 CALM      30.29R
MILES CITY     SUNNY     46  28  49 NW8       30.21R
BIG TIMBER     SUNNY     45  43  93 W9        30.31R
FORSYTH          N/A     46  32  57 W7        30.23R
LAUREL           N/A     48  38  68 CALM      30.22F
ROUNDUP          N/A     47  31  54 SW2       30.15R
$$

REGIONAL REPORTS...DAKOTAS

CITY           SKY/WX    TMP DP  RH WIND       PRES   REMARKS
WILLISTON      CLOUDY    50  40  68 NW15      30.13R
MINOT          MOSUNNY   53  45  74 NW21G29   30.01R
DICKINSON      SUNNY     46  39  76 W13       30.10R
BEACH            N/A     46  39  76 NW13      30.18S
CROSBY         CLOUDY    50  45  81 NW14G22   30.11R
TIOGA          CLOUDY    48  48 100 NW16      30.11R
WATFORD CITY   PTSUNNY   46  41  81 NW9       30.11S
BISMARCK       PTSUNNY   54  43  66 NW14      30.03R
GRAND FORKS    LGT RAIN  50  48  93 N17G24    29.85R FOG
FARGO          LGT RAIN  52  49  89 NW20G25   29.85R
BUFFALO SD       N/A     50  37  61 NW12      30.09S
RAPID CITY     SUNNY     50  37  61 NW6       30.15R
$$

REGIONAL REPORTS...WYOMING/IDAHO/WASHINGTON

CITY           SKY/WX    TMP DP  RH WIND       PRES   REMARKS
GILLETTE       PTSUNNY   48  42  80 W10       30.21R
SHERIDAN       MOSUNNY   53  42  66 NW7       30.24R
BUFFALO WY     MOSUNNY   51  40  65 NW7       30.26R
CODY           SUNNY     48  40  73 CALM      30.30R
YELLOWSTONE LA   N/A     30  29  96 CALM      30.40R
IDAHO FALLS    SUNNY     47  42  83 N8        30.24R
SALMON         CLEAR     45  39  81 CALM      30.24R
BOISE          CLEAR     58  43  57 SE7       30.09S
SPOKANE        CLEAR     61  47  59 E7        30.09R
$$

REGIONAL REPORTS...ALBERTA

CITY           SKY/WX    TMP DP  RH WIND       PRES   REMARKS
EDMONTON       SUNNY     46  37  71 E2        30.24R
CALGARY        SUNNY     50  36  57 S6        30.22S
LETHBRIDGE     MOSUNNY   46  43  87 CALM      30.22S
MEDICINE HAT   SUNNY     43  36  75 S2        30.24R
CARDSTON         N/A     48  43  81 S2          N/A
MILK RIVER       N/A     45  41  87 NW1         N/A
ONEFOUR          N/A     50  34  53 E3          N/A
$$

REGIONAL REPORTS...SASKATCHEWAN

CITY           SKY/WX    TMP DP  RH WIND       PRES   REMARKS
SWIFT CURRENT  SUNNY     45  36  70 W8        30.22S
REGINA         MOSUNNY   50  41  71 NW20      30.14R
SASKATOON      SUNNY     46  41  81 NW9       30.21R
CYPRESS HILLS    N/A     46  32  57 W1          N/A
VAL MARIE        N/A     41  34  75 CALM        N/A
ROCKGLEN         N/A     45  37  76 NW14        N/A
ASSINIBOIA       N/A     46  39  76 NE1         N/A
$$



USA.gov is the U.S. government's official web portal to all federal, state and local government web resources and services.